(210980) = 2001 VP107 = 2004 JY

Discovered at Socorro on 2001-11-12 by LINEAR.

Orbit

Orbit type: Main Belt

Note: WebGL enabled browser required.

epoch2023-09-13.0
epoch JD2460200.5
perihelion date2019-05-25.99278
perihelion JD2458629.49278
argument of perihelion (°)29.68880
ascending node (°)47.48330
inclination (°)9.99409
eccentricity0.0949528
perihelion distance (AU)2.9033630
Tisserand w.r.t. Jupiter3.2
ΔV w.r.t. Earth (km/sec)11.0
semimajor axis (AU)3.2079687
mean anomaly (°)269.48639
mean daily motion (°/day)0.17153730
aphelion distance (AU)3.513
period (years)5.75
P-vector [x]0.22756304
P-vector [y]0.85573172
P-vector [z]0.46469160
Q-vector [x]-0.96532487
Q-vector [y]0.13555808
Q-vector [z]0.22309616
absolute magnitude15.67
phase slope0.15
uncertainty0
referenceMPEC 2024-A158
observations used366
oppositions13
arc length (days)8089
first opposition used2001
last opposition used2023
residual rms (arc-secs)0.75
perturbers coarse indicatorM-v
perturbers precise indicator003Ek
first observation date used2001-10-21.0
last observation date used2023-12-14.0
computer nameMPCLINUX
JD of orbit computation2456700.459704
perihelion JD uncertainty (days)2.8869E-04
argument of perihelion uncertainty (°)6.4584E-05
ascending node uncertainty (°)3.7767E-05
inclination uncertainty (°)1.0916E-05
eccentricity uncertainty 8.4168E-08
perihelion distance uncertainty (AU)2.8007E-07
Minimum Orbit Intersection Distances (in AU)
for orbit epoch: 2460200.5, reference: E2024-AF8
Mercury2.59599
Venus2.18612
Earth1.92178
Mars1.35045
Jupiter1.81983
Saturn6.1817
Uranus15.2226
Neptune26.785

Observations

379 total observations over interval: 2001 10 21.45578 – 2023 12 14.07185
These data are available for download (format description).

Date (UT) J2000 RA J2000 Dec Magn Location Ref
2001 10 21.45578 04 02 15.32 +21 40 21.8 19.8   704 – Lincoln Laboratory ETS, New Mexico MPS 44883
2001 10 21.47239 04 02 14.81 +21 40 23.5 19.9   704 – Lincoln Laboratory ETS, New Mexico MPS 44883
2001 10 21.48900 04 02 14.30 +21 40 24.7 19.9   704 – Lincoln Laboratory ETS, New Mexico MPS 44883
2001 11 12.30643 03 45 56.72 +22 05 24.0 19.9   704 – Lincoln Laboratory ETS, New Mexico MPS 44883
2001 11 12.32118 03 45 56.02 +22 05 25.1 19.7   704 – Lincoln Laboratory ETS, New Mexico MPS 44883
2001 11 12.33591 03 45 55.18 +22 05 24.6 20.1   704 – Lincoln Laboratory ETS, New Mexico MPS 44883
2001 11 12.35063 03 45 54.35 +22 05 26.0 19.5   704 – Lincoln Laboratory ETS, New Mexico MPS 44883
2001 11 19.17017 03 39 38.33 +22 07 48.3 19.2 R 699 – Lowell Observatory-LONEOS MPS 44883
2001 11 19.18732 03 39 37.36 +22 07 48.3   699 – Lowell Observatory-LONEOS MPS 44883
2001 11 19.20451 03 39 36.41 +22 07 48.6   699 – Lowell Observatory-LONEOS MPS 44883
2001 11 19.22172 03 39 35.42 +22 07 50.0   699 – Lowell Observatory-LONEOS MPS 44883
2001 11 19.28744 03 39 31.65 +22 07 49.9 19.0   704 – Lincoln Laboratory ETS, New Mexico MPS 44883
2001 11 19.30211 03 39 30.84 +22 07 51.2 19.8   704 – Lincoln Laboratory ETS, New Mexico MPS 44883
2001 11 19.31678 03 39 29.94 +22 07 50.1 19.3   704 – Lincoln Laboratory ETS, New Mexico MPS 44883
2001 11 19.33145 03 39 29.08 +22 07 50.2 19.3   704 – Lincoln Laboratory ETS, New Mexico MPS 44883
2001 11 19.34612 03 39 28.24 +22 07 49.8 19.4   704 – Lincoln Laboratory ETS, New Mexico MPS 44883
2001 11 20.21141 03 38 40.17 +22 07 59.5 18.8   704 – Lincoln Laboratory ETS, New Mexico MPS 44883
2001 11 20.22609 03 38 39.35 +22 08 00.4 19.1   704 – Lincoln Laboratory ETS, New Mexico MPS 44883
2001 11 20.24081 03 38 38.49 +22 08 00.3 19.2   704 – Lincoln Laboratory ETS, New Mexico MPS 44883
2001 11 20.25567 03 38 37.67 +22 08 00.4 19.1   704 – Lincoln Laboratory ETS, New Mexico MPS 44883
2001 11 20.27036 03 38 36.81 +22 08 00.7 19.1   704 – Lincoln Laboratory ETS, New Mexico MPS 44883
2001 11 20.54113 03 38 21.45 +22 08 01.9 20.7   608 – Haleakala-AMOS MPS 44883
2001 11 20.55163 03 38 20.85 +22 08 03.2 20.3   608 – Haleakala-AMOS MPS 44883
2001 11 20.56423 03 38 20.16 +22 08 02.5 19.9   608 – Haleakala-AMOS MPS 44883
2001 11 24.21953 03 34 57.72 +22 08 16.4 19.8   704 – Lincoln Laboratory ETS, New Mexico MPS 49629
2001 11 24.23461 03 34 56.84 +22 08 16.3 20.1   704 – Lincoln Laboratory ETS, New Mexico MPS 49629
2001 11 24.25039 03 34 55.86 +22 08 14.7 20.1   704 – Lincoln Laboratory ETS, New Mexico MPS 49629
2001 11 24.26490 03 34 55.03 +22 08 16.0 20.5   704 – Lincoln Laboratory ETS, New Mexico MPS 49629
2001 11 24.27941 03 34 54.24 +22 08 15.7 19.5   704 – Lincoln Laboratory ETS, New Mexico MPS 49629
2001 12 10.23224 03 21 32.10 +22 06 01.7 20.0   704 – Lincoln Laboratory ETS, New Mexico MPS 44883
2001 12 10.24759 03 21 31.42 +22 06 02.9 20.3   704 – Lincoln Laboratory ETS, New Mexico MPS 44883
2001 12 10.26284 03 21 30.74 +22 06 02.0 20.2   704 – Lincoln Laboratory ETS, New Mexico MPS 44883
2001 12 15.15200 03 18 13.95 +22 05 28.8 19.9   704 – Lincoln Laboratory ETS, New Mexico MPS 44883
2001 12 15.16708 03 18 13.42 +22 05 29.3 20.0   704 – Lincoln Laboratory ETS, New Mexico MPS 44883
2001 12 15.21705 03 18 11.46 +22 05 29.9 20.1   704 – Lincoln Laboratory ETS, New Mexico MPS 44883
2001 12 18.15107 03 16 28.45 +22 05 29.2 19.9   704 – Lincoln Laboratory ETS, New Mexico MPS 44883
2001 12 18.16718 03 16 27.86 +22 05 29.5 20.3   704 – Lincoln Laboratory ETS, New Mexico MPS 44883
2001 12 18.18279 03 16 27.37 +22 05 29.4 20.1   704 – Lincoln Laboratory ETS, New Mexico MPS 44883
2001 12 18.19797 03 16 26.81 +22 05 29.3 19.4   704 – Lincoln Laboratory ETS, New Mexico MPS 44883
2001 12 18.21317 03 16 26.27 +22 05 29.7 20.3   704 – Lincoln Laboratory ETS, New Mexico MPS 44883
2001 12 19.14554 03 15 56.29 +22 05 33.5 19.5   704 – Lincoln Laboratory ETS, New Mexico MPS 44883
2001 12 19.16286 03 15 55.65 +22 05 34.3 19.8   704 – Lincoln Laboratory ETS, New Mexico MPS 44883
2001 12 19.17928 03 15 55.12 +22 05 34.0 19.8   704 – Lincoln Laboratory ETS, New Mexico MPS 44883
2001 12 19.19444 03 15 54.61 +22 05 33.9 19.8   704 – Lincoln Laboratory ETS, New Mexico MPS 44883
2001 12 19.20961 03 15 54.10 +22 05 34.0 19.6   704 – Lincoln Laboratory ETS, New Mexico MPS 44883
2004 04 22.31745 14 47 58.24 -14 19 29.7 20.3 V 691 – Steward Observatory, Kitt Peak-Spacewatch MPS 106826
2004 04 22.34393 14 47 56.97 -14 19 27.6 20.3 V 691 – Steward Observatory, Kitt Peak-Spacewatch MPS 106826
2004 04 22.37560 14 47 55.46 -14 19 24.7 20.5 V 691 – Steward Observatory, Kitt Peak-Spacewatch MPS 106826
2004 05 10.30648 14 33 31.68 -13 53 39.2 20.0 R 673 – Table Mountain Observatory, Wrightwood MPS 106826
2004 05 10.30984 14 33 31.48 -13 53 38.8   673 – Table Mountain Observatory, Wrightwood MPS 106826
2004 05 10.31737 14 33 31.14 -13 53 38.3   673 – Table Mountain Observatory, Wrightwood MPS 106826
2004 05 12.25509 14 32 00.31 -13 50 59.3 20.0 R 673 – Table Mountain Observatory, Wrightwood MPS 106826
2004 05 12.26134 14 32 00.04 -13 50 58.9   673 – Table Mountain Observatory, Wrightwood MPS 106826
2004 05 12.27199 14 31 59.50 -13 50 58.1   673 – Table Mountain Observatory, Wrightwood MPS 106826
2007 11 07.39249 05 43 08.93 +29 24 02.8 20.5   704 – Lincoln Laboratory ETS, New Mexico MPS 224651
2007 11 07.40482 05 43 08.59 +29 24 05.8 19.9   704 – Lincoln Laboratory ETS, New Mexico MPS 224651
2007 11 07.41718 05 43 08.34 +29 24 07.5 20.4   704 – Lincoln Laboratory ETS, New Mexico MPS 224651
2007 11 07.42970 05 43 08.06 +29 24 12.1 20.3   704 – Lincoln Laboratory ETS, New Mexico MPS 224651
2007 11 07.43544 05 43 07.92 +29 24 14.0 21.5 V 691 – Steward Observatory, Kitt Peak-Spacewatch MPS 233318
2007 11 07.45316 05 43 07.42 +29 24 17.2 20.1 V 691 – Steward Observatory, Kitt Peak-Spacewatch MPS 233318
2007 11 07.47087 05 43 07.00 +29 24 21.4 20.1 V 691 – Steward Observatory, Kitt Peak-Spacewatch MPS 233318
2007 11 19.39373 05 36 43.48 +30 11 13.0   691 – Steward Observatory, Kitt Peak-Spacewatch MPS 228202
2007 11 19.41139 05 36 42.77 +30 11 17.7   691 – Steward Observatory, Kitt Peak-Spacewatch MPS 228202
2007 11 19.42906 05 36 42.03 +30 11 21.9   691 – Steward Observatory, Kitt Peak-Spacewatch MPS 228202
2007 12 13.27302 05 15 35.62 +31 18 10.8 19.5   704 – Lincoln Laboratory ETS, New Mexico MPS 230900
2007 12 13.28599 05 15 34.80 +31 18 12.6 19.8   704 – Lincoln Laboratory ETS, New Mexico MPS 230900
2007 12 13.29897 05 15 34.03 +31 18 14.0 20.0   704 – Lincoln Laboratory ETS, New Mexico MPS 230900
2007 12 13.31197 05 15 33.25 +31 18 14.8 19.6   704 – Lincoln Laboratory ETS, New Mexico MPS 230900
2007 12 16.27583 05 12 37.64 +31 22 48.3 20.0   704 – Lincoln Laboratory ETS, New Mexico MPS 231298
2007 12 16.28915 05 12 36.83 +31 22 49.9 19.6   704 – Lincoln Laboratory ETS, New Mexico MPS 231298
2007 12 16.30216 05 12 36.03 +31 22 50.2 19.6   704 – Lincoln Laboratory ETS, New Mexico MPS 231298
2007 12 16.31520 05 12 35.22 +31 22 52.0 20.2   704 – Lincoln Laboratory ETS, New Mexico MPS 231298
2009 02 02.48344 12 01 44.54 +13 05 10.3 20.9 V G96 – Mt. Lemmon Survey MPS 272253
2009 02 02.49021 12 01 44.40 +13 05 11.5 21.0 V G96 – Mt. Lemmon Survey MPS 272253
2009 02 02.49685 12 01 44.29 +13 05 13.7 20.9 V G96 – Mt. Lemmon Survey MPS 272253
2009 02 02.50360 12 01 44.18 +13 05 15.0 20.9 V G96 – Mt. Lemmon Survey MPS 272253
2009 03 08.25079 11 41 49.12 +15 31 28.0 20.0 V G96 – Mt. Lemmon Survey MPS 279571
2009 03 08.25819 11 41 48.76 +15 31 30.1 20.0 V G96 – Mt. Lemmon Survey MPS 279571
2009 03 08.26554 11 41 48.40 +15 31 31.9 20.0 V G96 – Mt. Lemmon Survey MPS 279571
2009 03 08.27298 11 41 48.04 +15 31 33.1 20.2 V G96 – Mt. Lemmon Survey MPS 279571
2009 03 21.27446 11 31 26.04 +16 11 03.6 19.8 V 703 – Catalina Sky Survey MPS 281208
2009 03 21.28140 11 31 25.71 +16 11 04.9 20.4 V 703 – Catalina Sky Survey MPS 281208
2009 03 21.28837 11 31 25.39 +16 11 05.7 20.8 V 703 – Catalina Sky Survey MPS 281208
2009 03 21.29521 11 31 25.10 +16 11 06.2 20.3 V 703 – Catalina Sky Survey MPS 281208
2010 02 19.692594 15 56 36.32 -19 48 36.9   C51 – WISE MPS 316538
